Location: Michelbach Markt
(48.1000°N, 15.7500°E)
Time: 04:15:26
(UTC+01:00)

ISS - Pass Details

Date: 07 December 2021
Orbit: 413 x 422 km, 51.6° (Epoch: 27 January)

Event Time Altitude Azimuth Distance (km) Brightness Sun altitude
Rises 17:02:21 0° 292° (WNW) 2,389 0.8 -9.4°
Reaches altitude 10° 17:04:31 10° 286° (WNW) 1,519 -0.1 -9.7°
Maximum altitude 17:07:49 48° 211° (SSW) 561 -2.7 -10.2°
Drops below altitude 10° 17:11:05 10° 136° (SE) 1,504 -1.2 -10.7°
Enters shadow 17:13:27 -1° 130° (SE) 2,462 -0.1 -11.1°
